GW0821 Weather Reports


time (UTC)temp
C
wind
direction
speed
KPH
gust
KPH
rain 1hr
cm
rain 24hr
cm
rain mn
cm
humidity
%
barometer
mb
20220627214604 18 0 0.0 3.2 0.00 0.05 0.05 87 1018.8
20220627213105 18 0 0.0 4.8 0.00 0.05 0.05 87 1018.9
20220627211548 18 341 0.0 3.2 0.00 0.05 0.05 87 1019.0
20220627210105 19 0 0.0 3.2 0.00 0.05 0.05 88 1019.0
20220627204559 19 0 0.0 1.6 0.00 0.05 0.05 87 1019.0
20220627203103 19 108 1.6 4.8 0.00 0.05 0.05 87 1018.7
20220627201559 19 0 0.0 0.0 0.00 0.05 0.05 88 1018.5
20220627200111 19 0 0.0 0.0 0.00 0.05 0.05 88 1018.3
20220627194556 19 0 0.0 1.6 0.00 0.05 0.05 87 1018.0
20220627193102 19 255 0.0 1.6 0.00 0.05 0.05 86 1017.8
20220627191603 20 0 0.0 1.6 0.05 0.05 0.05 85 1017.6
20220627190054 20 0 0.0 8.0 0.05 0.05 0.05 82 1017.6
20220627184609 20 87 0.0 8.0 0.05 0.05 0.05 81 1017.2
20220627183057 21 281 3.2 12.9 0.03 0.03 0.03 73 1017.3
20220627181549 22 245 4.8 11.3 0.00 0.00 0.00 68 1016.5
20220627180059 23 238 1.6 6.4 0.00 0.00 0.00 63 1016.1
20220627174557 23 256 0.0 1.6 0.00 0.00 0.00 60 1016.0
20220627173102 24 234 3.2 8.0 0.00 0.00 0.00 53 1016.1
20220627171552 24 231 3.2 9.7 0.00 0.00 0.00 53 1016.2
20220627170049 24 159 3.2 6.4 0.00 0.00 0.00 53 1015.3
20220627164548 25 192 3.2 17.7 0.00 0.00 0.00 54 1015.0
20220627163120 25 248 3.2 8.0 0.00 0.00 0.00 52 1015.1
20220627161600 26 227 4.8 11.3 0.00 0.00 0.00 51 1015.0
20220627160107 26 177 3.2 9.7 0.00 0.00 0.00 52 1014.9
20220627154552 26 113 1.6 9.7 0.00 0.00 0.00 53 1014.9
20220627153050 26 160 3.2 6.4 0.00 0.00 0.00 53 1015.0
20220627151610 26 170 4.8 19.3 0.00 0.00 0.00 55 1015.1
20220627150108 27 172 8.0 14.5 0.00 0.00 0.00 52 1015.1
20220627144559 27 138 4.8 11.3 0.00 0.00 0.00 51 1015.0
20220627143105 28 137 4.8 14.5 0.00 0.00 0.00 46 1014.7
20220627141556 28 217 6.4 11.3 0.00 0.00 0.00 42 1014.5
20220627140051 28 232 4.8 9.7 0.00 0.00 0.00 48 1014.1
20220627134608 28 256 4.8 9.7 0.00 0.00 0.00 48 1014.0
20220627133054 27 43 3.2 12.9 0.00 0.00 0.00 50 1013.9
20220627131555 28 234 1.6 11.3 0.00 0.00 0.00 49 1014.0
20220627130101 28 255 3.2 11.3 0.00 0.00 0.00 47 1014.1
20220627124544 27 231 1.6 8.0 0.00 0.00 0.00 47 1014.7
20220627123053 26 241 4.8 9.7 0.00 0.00 0.00 49 1014.9
20220627121553 26 253 6.4 9.7 0.00 0.00 0.00 49 1015.2
20220627120112 27 200 3.2 6.4 0.00 0.00 0.00 50 1015.5
20220627114554 26 136 0.0 4.8 0.00 0.00 0.00 53 1015.8
20220627113121 25 82 4.8 8.0 0.00 0.00 0.00 53 1015.5
20220627111552 26 225 1.6 6.4 0.00 0.00 0.00 52 1015.5
20220627110056 26 222 1.6 4.8 0.00 0.00 0.00 50 1015.6
20220627104553 26 241 3.2 8.0 0.00 0.00 0.00 48 1015.4
20220627103057 27 345 4.8 12.9 0.00 0.00 0.00 49 1014.4
20220627101600 27 6 3.2 11.3 0.00 0.00 0.00 50 1014.6
20220627100114 26 80 3.2 11.3 0.00 0.00 0.00 49 1014.9
20220627094552 26 111 1.6 4.8 0.00 0.00 0.00 55 1015.2
20220627093109 25 238 1.6 4.8 0.00 0.00 0.00 59 1015.2
20220627091558 24 123 4.8 9.7 0.00 0.00 0.00 61 1015.2
20220627090109 24 114 0.0 4.8 0.00 0.00 0.00 63 1015.2
20220627084602 23 0 0.0 3.2 0.00 0.00 0.00 66 1015.2
20220627083053 23 0 1.6 6.4 0.00 0.00 0.00 68 1015.1
20220627081600 23 0 1.6 8.0 0.00 0.00 0.00 67 1014.7
20220627080101 22 61 4.8 11.3 0.00 0.00 0.00 69 1014.6
20220627074600 22 338 4.8 11.3 0.00 0.00 0.00 72 1014.5
20220627073109 21 32 1.6 12.9 0.00 0.00 0.00 73 1014.4
20220627071609 22 75 4.8 11.3 0.00 0.00 0.00 72 1014.3
20220627070104 21 30 1.6 11.3 0.00 0.00 0.00 74 1014.1
20220627064554 20 295 1.6 4.8 0.00 0.00 0.00 76 1013.8
20220627063108 20 0 0.0 1.6 0.00 0.00 0.00 75 1013.7
20220627061614 18 0 0.0 0.0 0.00 0.00 0.00 78 1013.5
20220627060105 17 226 0.0 1.6 0.00 0.00 0.00 80 1013.5
20220627054550 16 0 0.0 0.0 0.00 0.00 0.00 80 1013.3
20220627053055 16 0 0.0 0.0 0.00 0.00 0.00 82 1013.2
20220627051604 15 0 0.0 0.0 0.00 0.00 0.00 82 1013.3
20220627050057 15 0 0.0 0.0 0.00 0.00 0.00 83 1013.2
20220627044606 14 0 0.0 1.6 0.00 0.00 0.00 84 1013.0
20220627043104 15 0 0.0 0.0 0.00 0.00 0.00 84 1012.9
20220627041606 15 0 0.0 0.0 0.00 0.00 0.00 84 1012.6
20220627040106 15 0 0.0 0.0 0.00 0.00 0.00 82 1012.6
20220627034609 15 0 0.0 0.0 0.00 0.00 0.00 85 1012.3
20220627033058 15 0 0.0 0.0 0.00 0.00 0.00 87 1012.3
20220627031545 15 0 0.0 0.0 0.00 0.00 0.00 86 1012.4
20220627030101 15 0 0.0 0.0 0.00 0.00 0.00 85 1012.4
20220627024602 15 0 0.0 0.0 0.00 0.00 0.00 85 1012.4
20220627023100 15 0 0.0 0.0 0.00 0.00 0.00 84 1012.5
20220627021600 15 0 0.0 0.0 0.00 0.00 0.00 84 1012.5
20220627020101 15 0 0.0 0.0 0.00 0.00 0.00 82 1012.4
20220627014610 16 0 0.0 0.0 0.00 0.00 0.00 82 1012.5
20220627013054 15 0 0.0 1.6 0.00 0.00 0.00 80 1012.4
20220627011601 16 0 0.0 1.6 0.00 0.00 0.00 79 1012.3
20220627010057 16 0 0.0 1.6 0.00 0.00 0.00 80 1012.4
20220627004553 16 0 1.6 3.2 0.00 0.00 0.00 78 1012.4
20220627003053 16 0 0.0 1.6 0.00 0.00 0.00 79 1012.6
20220627001607 17 0 0.0 0.0 0.00 0.00 0.00 80 1012.7
20220627000100 17 0 0.0 1.6 0.00 0.00 0.00 76 1012.7
20220626234605 17 0 0.0 1.6 0.00 0.00 0.00 79 1012.4
20220626233104 17 0 0.0 1.6 0.00 0.00 0.00 80 1012.5
20220626231609 17 250 0.0 1.6 0.00 0.00 0.00 80 1012.4
20220626230107 18 0 0.0 0.0 0.00 0.00 0.00 82 1012.4
20220626224607 18 0 0.0 0.0 0.00 0.00 0.00 82 1012.4
20220626223110 18 0 0.0 0.0 0.00 0.00 0.00 81 1012.5
20220626221604 18 0 0.0 0.0 0.00 0.00 0.00 81 1012.4
20220626220103 19 0 0.0 1.6 0.00 0.00 0.00 80 1012.1